Weather History for KCSG - October, 2011

Change the Weather History Date:

Thursday, October 6, 2011

  Actual Average Record
Temperature  
Mean Temperature 70 °F 70 °F  
Max Temperature 84 °F 80 °F 95 °F (1954)
Min Temperature 56 °F 59 °F 45 °F (1961)
Degree Days  
Heating Degree Days 0 1  
Month to date heating degree days 9 6  
Since 1 July heating degree days 10 9  
Cooling Degree Days 5 6  
Month to date cooling degree days 11 38  
Year to date cooling degree days 2677 2260  
Growing Degree Days 18 (Base 50)    
Moisture  
Dew Point 52 °F    
Average Humidity 59    
Maximum Humidity 86    
Minimum Humidity 31    
Precipitation  
Precipitation 0.00 in 0.09 in 0.89 in (1960)
Month to date precipitation 0.00 0.55  
Year to date precipitation 30.67 36.35  
Sea Level Pressure  
Sea Level Pressure 30.20 in    
Wind  
Wind Speed 6 mph (East)    
Max Wind Speed 17 mph    
Max Gust Speed 23 mph    
Visibility 10 miles    
Events      
T = Trace of Precipitation, MM = Missing Value Source: NWS Daily Summary

Daily Weather History Graph

Daily Weather History Graph

Search for Another Location

Airport or City:

Trip Planner

Search our weather history database for the weather conditions in past years. The results will help you decide how hot, cold, wet, or windy it might be!

Date:

Astronomy

Oct. 06, 2011 Rise Set
Actual Time 7:37 AM EDT 7:18 PM EDT
Civil Twilight 7:12 AM EDT 7:42 PM EDT
Nautical Twilight 6:43 AM EDT 8:11 PM EDT
Astronomical Twilight 6:15 AM EDT 8:39 PM EDT
Moon 4:17 PM EDT (10/6) 2:41 AM EDT (10/6)
Length of Visible Light 12h 30m
Length of Day
11h 41m
Waxing Gibbous, 75% of the Moon is Illuminated
Oct 6
Waxing Gibbous
Oct 11
Full
Oct 19
Last Quarter
Oct 26
New
Nov 2
First Quarter

Hourly Weather History & Observations

Time (EDT) Temp. Dew Point Humidity Pressure Visibility Wind Dir Wind Speed Gust Speed Precip Events Conditions
12:51 AM 64.0 °F 53.1 °F 67% 30.16 in 10.0 mi Calm Calm - N/A   Clear
1:51 AM 64.0 °F 52.0 °F 65% 30.16 in 10.0 mi Calm Calm - N/A   Clear
2:51 AM 63.0 °F 52.0 °F 67% 30.16 in 10.0 mi Calm Calm - N/A   Clear
3:51 AM 59.0 °F 52.0 °F 78% 30.16 in 10.0 mi Calm Calm - N/A   Clear
4:51 AM 60.1 °F 52.0 °F 75% 30.17 in 10.0 mi Calm Calm - N/A   Clear
5:51 AM 59.0 °F 52.0 °F 78% 30.18 in 10.0 mi Calm Calm - N/A   Clear
6:51 AM 60.1 °F 52.0 °F 75% 30.20 in 10.0 mi Calm Calm - N/A   Clear
7:51 AM 55.9 °F 52.0 °F 87% 30.23 in 10.0 mi Calm Calm - N/A   Clear
8:51 AM 61.0 °F 53.1 °F 75% 30.24 in 10.0 mi East 3.5 mph - N/A   Clear
9:51 AM 66.9 °F 55.0 °F 66% 30.25 in 10.0 mi East 6.9 mph - N/A   Clear
10:51 AM 72.0 °F 54.0 °F 53% 30.26 in 10.0 mi East 4.6 mph - N/A   Clear
11:51 AM 75.9 °F 53.1 °F 45% 30.25 in 10.0 mi ESE 12.7 mph - N/A   Clear
12:51 PM 78.1 °F 50.0 °F 37% 30.23 in 10.0 mi ESE 12.7 mph 20.7 mph N/A   Clear
1:51 PM 80.6 °F 50.0 °F 34% 30.21 in 10.0 mi East 13.8 mph 18.4 mph N/A   Clear
2:51 PM 80.1 °F 48.9 °F 34% 30.18 in 10.0 mi East 8.1 mph - N/A   Clear
3:51 PM 82.9 °F 48.9 °F 31% 30.17 in 10.0 mi ESE 8.1 mph - N/A   Clear
4:51 PM 82.9 °F 48.9 °F 31% 30.16 in 10.0 mi East 15.0 mph 18.4 mph N/A   Clear
5:51 PM 82.0 °F 48.9 °F 31% 30.16 in 10.0 mi East 11.5 mph - N/A   Clear
6:51 PM 79.0 °F 50.0 °F 36% 30.17 in 10.0 mi East 6.9 mph - N/A   Clear
7:51 PM 75.0 °F 54.0 °F 48% 30.19 in 10.0 mi ENE 6.9 mph - N/A   Clear
8:51 PM 73.0 °F 53.1 °F 49% 30.21 in 10.0 mi ENE 4.6 mph - N/A   Clear
9:51 PM 72.0 °F 53.1 °F 51% 30.22 in 10.0 mi ENE 5.8 mph - N/A   Clear
10:51 PM 71.1 °F 52.0 °F 51% 30.23 in 10.0 mi East 6.9 mph - N/A   Clear
11:51 PM 71.1 °F 51.1 °F 49% 30.24 in 10.0 mi East 8.1 mph - N/A   Clear